Location: Tyumen
(57.1527°N, 65.5323°E)
Time: 03:30:28
(UTC+05:00)

ISS - Visible Passes

Search period start: 29 November 2023 00:00
Search period end: 09 December 2023 00:00
Orbit: 416 x 418 km, 51.6° (Epoch: 28 November)

Date Brightness Start Highest point End Pass type
(mag) Time Alt. Az. Time Alt. Az. Time Alt. Az.
29 Nov -2.2 17:36:11 10° WSW 17:39:14 31° S 17:42:15 10° ESE visible
29 Nov -1.5 19:12:53 10° WSW 19:15:10 20° SSW 19:15:10 20° SSW visible
30 Nov -2.1 16:47:59 10° WSW 16:51:01 32° S 16:54:04 10° ESE visible
30 Nov -1.7 18:24:28 10° WSW 18:27:14 24° SSW 18:28:56 16° SSE visible
01 Dec -1.9 17:36:06 10° WSW 17:39:01 27° SSW 17:41:55 10° SE visible
01 Dec -0.9 19:13:29 10° WSW 19:15:01 13° SSW 19:15:40 12° SSW visible
02 Dec -1.9 16:47:44 10° WSW 16:50:44 30° S 16:53:43 10° SE visible
02 Dec -1.0 18:24:38 10° WSW 18:26:49 16° SSW 18:29:00 10° SSE visible
03 Dec -1.2 17:35:59 10° WSW 17:38:33 20° SSW 17:41:06 10° SSE visible
04 Dec -1.4 16:47:26 10° WSW 16:50:13 24° SSW 16:52:59 10° SE visible
05 Dec -0.6 17:36:09 10° WSW 17:37:48 13° SSW 17:39:27 10° S visible
06 Dec -0.7 16:47:11 10° WSW 16:49:26 17° SSW 16:51:40 10° SSE visible
08 Dec 0.2 16:48:02 10° SW 16:48:22 10° SW 16:48:42 10° SSW visible
